Savognin, Switzerland 16 day weather forecast

Slopes altitude range -1 m - -1m

Number of lifts: -1 Pistes: -1km

In some cases the lift and piste totals shown are for the ski domain (e.g. Three Valleys) rather than individual resort (e.g. Courchevel)

Overview

The 16 day weather forecast is fully updated 4 times every day.

    • Thu 21 FEB 2019
    • Thu 21
    • -6C 0C
    • Fri 22 FEB 2019
    • Fri 22
    • -7C -2C
    • Sat 23 FEB 2019
    • Sat 23
    • -6C 1C
    • Sun 24 FEB 2019
    • Sun 24
    • -5C 2C
    • Mon 25 FEB 2019
    • Mon 25
    • -4C 1C
    • Tue 26 FEB 2019
    • Tue 26
    • -4C 4C
    • Wed 27 FEB 2019
    • Wed 27
    • -1C 7C
    • Thu 28 FEB 2019
    • Thu 28
    • -1C 5C
    • Fri 01 MAR 2019
    • Fri 01
    • -2C 4C
    • Sat 02 MAR 2019
    • Sat 02
    • -1C 5C
    • Sun 03 MAR 2019
    • Sun 03
    • -5C -2C
    • Mon 04 MAR 2019
    • Mon 04
    • -3C 6C
    • Tue 05 MAR 2019
    • Tue 05
    • -1C 1C
    • Wed 06 MAR 2019
    • Wed 06
    • -4C -1C
    • Thu 07 MAR 2019
    • Thu 07
    • -9C -6C
    • Fri 08 MAR 2019
    • Fri 08
    • -13C -10C

Date:

Time Type 0°C level Temp Chill Snow Cloud Speed Gust Dir Press
18:00 1324m 0°C 0_10 0cm 54% 10mph 11mph 1029mB
21:00 1175m -7°C -7_11 0cm 3% 11mph 11mph 1031mB
0:00 1132m -7°C -7_11 0cm 23% 11mph 11mph 1031mB
3:00 1024m -8°C -8_11 0cm 9% 11mph 11mph 1031mB
6:00 1125m -8°C -8_13 0cm 17% 13mph 15mph 1031mB
9:00 1741m -7°C -7_17 0cm 80% 17mph 22mph 1030mB
12:00 1914m -2°C -2_18 0cm 89% 18mph 22mph 1028mB
15:00 1856m -2°C -2_16 0cm 100% 16mph 18mph 1028mB
18:00 1550m -2°C -2_11 1cm 100% 11mph 13mph 1032mB
21:00 1161m -7°C -7_7 0cm 89% 7mph 7mph 1033mB
0:00 1155m -7°C -7_6 0cm 45% 6mph 6mph 1033mB
3:00 1203m -7°C -7_5 0cm 0% 5mph 5mph 1032mB
6:00 1245m -7°C -7_8 0cm 0% 8mph 8mph 1033mB
9:00 2079m -6°C -6_7 0cm 0% 7mph 9mph 1033mB
12:00 2302m 1°C 1_6 0cm 0% 6mph 7mph 1032mB
15:00 2565m 1°C 1_5 0cm 52% 5mph 5mph 1031mB
18:00 1546m 1°C 1_4 0cm 61% 4mph 5mph 1033mB
21:00 1509m -5°C -5_3 0cm 0% 3mph 4mph 1034mB
0:00 1372m -5°C -5_2 0cm 0% 2mph 3mph 1035mB
3:00 1428m -5°C -5_3 0cm 0% 3mph 3mph 1034mB
6:00 1504m -5°C -5_7 0cm 0% 7mph 7mph 1035mB
9:00 2502m -5°C -5_5 0cm 9% 5mph 6mph 1035mB
12:00 2507m 2°C 2_5 0cm 11% 5mph 6mph 1033mB
15:00 2572m 2°C 2_7 0cm 0% 7mph 9mph 1032mB
18:00 1818m 2°C 2_8 0cm 0% 8mph 9mph 1034mB
21:00 1772m -3°C -3_8 0cm 0% 8mph 8mph 1035mB
0:00 1740m -3°C -3_7 0cm 0% 7mph 7mph 1035mB
3:00 1687m -3°C -3_6 0cm 0% 6mph 7mph 1035mB
6:00 1611m -4°C -4_4 0cm 2% 4mph 5mph 1036mB
9:00 2334m -4°C -4_6 0cm 74% 6mph 6mph 1036mB
12:00 2395m 1°C 1_9 0cm 37% 9mph 10mph 1034mB
15:00 2283m 1°C 1_7 0cm 0% 7mph 8mph 1033mB
18:00 1746m 1°C 1_3 0cm 0% 3mph 4mph 1035mB
21:00 1745m -3°C -3_3 0cm 0% 3mph 4mph 1036mB
0:00 1751m -3°C -3_4 0cm 32% 4mph 5mph 1035mB
3:00 1710m -3°C -3_6 0cm 54% 6mph 6mph 1034mB
6:00 1633m -4°C -4_7 0cm 27% 7mph 8mph 1033mB
9:00 3186m -4°C -4_6 0cm 34% 6mph 6mph 1032mB
12:00 3122m 4°C 4_5 0cm 59% 5mph 5mph 1030mB
15:00 3167m 4°C 4_5 0cm 68% 5mph 6mph 1029mB
18:00 2028m 4°C 4_5 0cm 61% 5mph 5mph 1030mB
21:00 1993m -1°C -1_5 0cm 0% 5mph 6mph 1030mB
0:00 2044m -1°C -1_5 0cm 0% 5mph 5mph 1029mB
3:00 2050m -1°C -1_5 0cm 1% 5mph 6mph 1027mB
6:00 2044m -1°C -1_6 0cm 1% 6mph 6mph 1027mB
9:00 3446m -1°C -1_4 0cm 0% 4mph 4mph 1025mB
12:00 3410m 7°C 7_4 0cm 0% 4mph 5mph 1024mB
15:00 3365m 7°C 7_4 0cm 0% 4mph 5mph 1023mB
18:00 2694m 7°C 7_5 0cm 0% 5mph 7mph 1024mB
21:00 2640m 0°C 0_6 0cm 0% 6mph 7mph 1025mB
0:00 2473m -1°C -1_5 0cm 0% 5mph 6mph 1025mB
3:00 1864m -2°C -2_1 0cm 0% 1mph 3mph 1024mB
6:00 1968m -2°C -2_5 0cm 0% 5mph 6mph 1024mB
9:00 3060m -1°C -1_7 0cm 1% 7mph 9mph 1023mB
12:00 2988m 5°C 5_9 0cm 2% 9mph 10mph 1022mB
15:00 2866m 5°C 5_10 0cm 31% 10mph 12mph 1021mB
18:00 2090m 5°C 5_8 0cm 65% 8mph 9mph 1023mB
21:00 1927m -2°C -2_9 0cm 62% 9mph 9mph 1024mB
0:00 1845m -2°C -2_9 0cm 65% 9mph 10mph 1024mB
3:00 1660m -2°C -2_2 0cm 0% 2mph 2mph 1025mB
6:00 1618m -2°C -2_2 0cm 4% 2mph 2mph 1025mB
9:00 2183m -2°C -2_1 0cm 45% 1mph 1mph 1024mB
12:00 2329m 4°C 4_3 0cm 59% 3mph 3mph 1022mB
15:00 2288m 5°C 5_4 0cm 69% 4mph 4mph 1021mB
18:00 2055m 5°C 5_1 0cm 68% 1mph 1mph 1023mB
21:00 1709m -1°C -1_1 0cm 68% 1mph 1mph 1024mB
0:00 1711m -1°C -1_4 0cm 66% 4mph 5mph 1024mB
3:00 1717m -1°C -1_5 0cm 66% 5mph 6mph 1022mB
6:00 1668m -1°C -1_4 0cm 66% 4mph 5mph 1022mB
9:00 2192m -1°C -1_5 0cm 70% 5mph 6mph 1020mB
12:00 2317m 5°C 5_4 0cm 78% 4mph 6mph 1018mB
15:00 2342m 5°C 5_4 0cm 64% 4mph 6mph 1016mB
18:00 2125m 5°C 5_4 0cm 43% 4mph 5mph 1017mB
21:00 2036m -1°C -1_5 0cm 71% 5mph 6mph 1016mB
0:00 2000m -1°C -1_8 1cm 78% 8mph 11mph 1016mB
3:00 1537m -3°C -3_9 4cm 100% 9mph 13mph 1017mB
6:00 1221m -5°C -5_7 4cm 100% 7mph 11mph 1019mB
9:00 1329m -5°C -5_6 1cm 98% 6mph 7mph 1020mB
12:00 1596m -2°C -2_6 1cm 92% 6mph 8mph 1020mB
Morning 0.0572917mm 0.0625 1324m -4°C -4_5 1cm 79% 5mph 5mph 1023mB
Afternoon 0mm 0 2791m 6°C 6_11 0cm 67% 11mph 18mph 1013mB
Morning 0.3125mm 0.25 1856m 0°C 0_6 2cm 96% 6mph 10mph 1013mB
Afternoon 0.328125mm 0.0625 1937m 1°C 1_6 3cm 95% 6mph 8mph 1009mB
Morning 0.135417mm 0.1875 1735m -2°C -2_6 2cm 70% 6mph 10mph 1006mB
Afternoon 0.619792mm 1.875 1515m -1°C -1_8 15cm 87% 8mph 12mph 1009mB
Morning 0.0677083mm 0.0625 915m -6°C -6_7 1cm 83% 7mph 12mph 1015mB
Afternoon 0.0729167mm 0.0625 818m -6°C -6_11 1cm 86% 11mph 14mph 1020mB
Morning 0.208333mm 0.1875 41m -12°C -12_8 2cm 100% 8mph 12mph 1031mB
Afternoon 0.291667mm 0.0625 272m -10°C -10_10 2cm 100% 10mph 15mph 1034mB
Morning 0.0729167mm 0.0625 0m -16°C -16_7 1cm 66% 7mph 7mph 1038mB
Afternoon 0mm 0 1869m 1°C 1_4 0cm 31% 4mph 5mph 1029mB

16 day outlook at a glance

Forecast issued: 21/02/2019 18:41:19

Chat

Your comments and questions. In a resort? Let us know what it's like!


Characters left 250

For terms and conditions see Readers Comments on the Cookie and privacy policy page.